This is the latest recevied weather packets stored in our database for station/object KN6CW-3. If no packets are shown the sender has not sent any weather packets the latest 10 day(s).
| Time | Temp. | Humidity | Pressure | Rain* | Wind** | Luminosity | Snow |
|---|---|---|---|---|---|---|---|
| 1777976937 | 12.22° C | 80% | 1009.7 hPa | 0 mm | - | 23 W/m² | - |
| 1777976637 | 12.22° C | 81% | 1009.7 hPa | 0 mm | - | 19 W/m² | - |
| 1777976336 | 12.22° C | 81% | 1009.7 hPa | 0 mm | - | 16 W/m² | - |
| 1777976036 | 12.22° C | 82% | 1009.7 hPa | 0 mm | - | 11 W/m² | - |
| 1777975736 | 12.22° C | 82% | 1009.5 hPa | 0 mm | - | 7 W/m² | - |
| 1777975436 | 12.78° C | 82% | 1009.4 hPa | 0 mm | - | 5 W/m² | - |
| 1777975135 | 12.78° C | 82% | 1009.4 hPa | 0 mm | - | 0 W/m² | - |
| 1777974835 | 12.22° C | 83% | 1009.3 hPa | 0 mm | - | 0 W/m² | - |
| 1777974535 | 12.22° C | 84% | 1009.2 hPa | 0 mm | - | 0 W/m² | - |
| 1777974234 | 12.22° C | 85% | 1009.1 hPa | 0.25 mm | - | 0 W/m² | - |
| 1777973934 | 12.22° C | 86% | 1009.1 hPa | 0.51 mm | - | 0 W/m² | - |
| 1777973634 | 12.22° C | 86% | 1009.2 hPa | 0.51 mm | - | 0 W/m² | - |
| 1777973333 | 12.22° C | 87% | 1009.2 hPa | 0.51 mm | - | 0 W/m² | - |
| 1777973033 | 12.22° C | 87% | 1009.1 hPa | 0.51 mm | - | 0 W/m² | - |
| 1777972733 | 12.22° C | 88% | 1009.1 hPa | 0.51 mm | - | 0 W/m² | - |
| 1777972433 | 11.67° C | 89% | 1009 hPa | 0.51 mm | - | 0 W/m² | - |
| 1777972132 | 11.67° C | 89% | 1009.1 hPa | 0.51 mm | - | 0 W/m² | - |
| 1777971832 | 12.22° C | 88% | 1009.2 hPa | 0.51 mm | - | 0 W/m² | - |
| 1777971532 | 12.22° C | 87% | 1009.2 hPa | 0.51 mm | - | 0 W/m² | - |
| 1777971232 | 12.22° C | 86% | 1009.3 hPa | 0.51 mm | - | 0 W/m² | - |
| 1777970931 | 12.22° C | 84% | 1009.4 hPa | 0.51 mm | - | 0 W/m² | - |
| 1777970631 | 12.78° C | 80% | 1009.5 hPa | 0.25 mm | - | 0 W/m² | - |
| 1777970331 | 13.33° C | 76% | 1009.3 hPa | 0 mm | - | 0 W/m² | - |
| 1777970030 | 13.33° C | 73% | 1009.8 hPa | 0 mm | - | 0 W/m² | - |
| 1777969730 | 12.78° C | 72% | 1009.9 hPa | 0 mm | - | 0 W/m² | - |
* Rain latest hour (hover to see other rain measurements)
** Current wind speed in m/s (hover to see current wind gust speed)